Silver Bay, MN

1:37 PM CST on November 17, 2019 (GMT -0600)
Silver Bay Municipal

Weather History for KBFW - October, 2019

Change the Weather History Date:

Monday, October 21, 2019

  Actual Average Record
Temperature  
Mean Temperature 43 °F -  
Max Temperature 44 °F 46 °F 62 °F (2017)
Min Temperature 42 °F 30 °F 17 °F (2011)
Degree Days  
Heating Degree Days 22    
Moisture  
Dew Point 41 °F    
Average Humidity 88    
Maximum Humidity 93    
Minimum Humidity 71    
Precipitation  
Precipitation 0.00 in - - ()
Sea Level Pressure  
Sea Level Pressure 29.70 in    
Wind  
Wind Speed 10 mph (NE)    
Max Wind Speed 26 mph    
Max Gust Speed 43 mph    
Visibility 9 miles    
Events Rain    
Averages and records for this station are not official NWS values.
T = Trace of Precipitation, MM = Missing Value Source: NWS Daily Summary

Daily Weather History Graph

Daily Weather History Graph

Search for Another Location

Airport or City:

Astronomy

Oct. 21, 2019 Rise Set
Actual Time 7:32 AM CDT 6:07 PM CDT
Civil Twilight 7:01 AM CDT 6:38 PM CDT
Nautical Twilight 6:25 AM CDT 7:14 PM CDT
Astronomical Twilight 5:50 AM CDT 7:49 PM CDT
Moon No Moon Rise 3:04 PM CDT (10/21)
Length of Visible Light 11h 37m
Length of Day
10h 35m
Waning Gibbous, 48% of the Moon is Illuminated
Oct 21
Waning Gibbous
Oct 27
New
Nov 4
First Quarter
Nov 12
Full
Nov 19
Last Quarter

Hourly Weather History & Observations

Time (CDT) Temp. Windchill Dew Point Humidity Pressure Visibility Wind Dir Wind Speed Gust Speed Precip Events Conditions
12:15 AM 44.6 °F 43.1 °F 35.6 °F 71% 29.91 in 10.0 mi North 3.5 mph - N/A   Clear
12:16 AM 44.6 °F 42.2 °F 35.6 °F 71% 29.91 in 10.0 mi NNE 4.6 mph - N/A   Clear
12:35 AM 44.6 °F 42.2 °F 35.6 °F 71% 29.91 in 10.0 mi NNE 4.6 mph - N/A   Clear
12:55 AM 44.6 °F 42.2 °F 35.6 °F 71% 29.90 in 10.0 mi NNE 4.6 mph - N/A   Clear
12:56 AM 44.6 °F 42.2 °F 35.6 °F 71% 29.90 in 10.0 mi NNE 4.6 mph - N/A   Clear
1:15 AM 44.6 °F 43.1 °F 35.6 °F 71% 29.90 in 10.0 mi North 3.5 mph - N/A   Clear
1:35 AM 44.6 °F 42.2 °F 35.6 °F 71% 29.89 in 10.0 mi NNE 4.6 mph - N/A   Clear
1:36 AM 44.6 °F 43.1 °F 35.6 °F 71% 29.89 in 10.0 mi NNE 3.5 mph - N/A   Clear
1:55 AM 44.6 °F 40.2 °F 37.4 °F 76% 29.88 in 10.0 mi NNE 8.1 mph - N/A   Clear
1:56 AM 44.6 °F 40.2 °F 37.4 °F 76% 29.87 in 10.0 mi NNE 8.1 mph - N/A   Clear
2:15 AM 44.6 °F 42.2 °F 37.4 °F 76% 29.87 in 10.0 mi NNE 4.6 mph - N/A   Clear
2:16 AM 44.6 °F 42.2 °F 37.4 °F 76% 29.87 in 10.0 mi NNE 4.6 mph - N/A   Clear
2:35 AM 44.6 °F 41.4 °F 37.4 °F 76% 29.86 in 10.0 mi NNE 5.8 mph - N/A   Clear
2:55 AM 44.6 °F 40.2 °F 37.4 °F 76% 29.82 in 10.0 mi NNE 8.1 mph - N/A   Clear
2:56 AM 44.6 °F 40.2 °F 37.4 °F 76% 29.82 in 10.0 mi NNE 8.1 mph - N/A   Clear
3:15 AM 44.6 °F 41.4 °F 37.4 °F 76% 29.83 in 10.0 mi NNE 5.8 mph - N/A   Clear
3:16 AM 44.6 °F 41.4 °F 37.4 °F 76% 29.83 in 10.0 mi NE 5.8 mph - N/A   Clear
3:35 AM 42.8 °F 37.0 °F 41.0 °F 93% 29.83 in 10.0 mi NE 10.4 mph 16.1 mph N/A   Scattered Clouds
3:36 AM 42.8 °F 37.5 °F 41.0 °F 93% 29.83 in 10.0 mi NE 9.2 mph 16.1 mph N/A   Scattered Clouds
3:55 AM 42.8 °F 37.5 °F 41.0 °F 93% 29.83 in 10.0 mi NE 9.2 mph - N/A   Mostly Cloudy
4:15 AM 44.6 °F 39.2 °F 42.8 °F 93% 29.82 in 10.0 mi NE 10.4 mph 19.6 mph N/A   Overcast
4:16 AM 44.6 °F 38.8 °F 42.8 °F 93% 29.83 in 10.0 mi NE 11.5 mph 19.6 mph N/A   Overcast
4:35 AM 44.6 °F 39.2 °F 42.8 °F 93% 29.84 in 10.0 mi NE 10.4 mph 17.3 mph N/A   Overcast
4:55 AM 44.6 °F 38.8 °F 42.8 °F 93% 29.83 in 10.0 mi NNE 11.5 mph 18.4 mph N/A   Overcast
5:15 AM 44.6 °F 38.8 °F 42.8 °F 93% 29.81 in 10.0 mi NE 11.5 mph 16.1 mph N/A   Overcast
5:35 AM 44.6 °F 38.8 °F 42.8 °F 93% 29.80 in 10.0 mi NE 11.5 mph 20.7 mph N/A   Overcast
5:55 AM 44.6 °F 39.2 °F 42.8 °F 93% 29.80 in 10.0 mi NE 10.4 mph - N/A   Overcast
6:15 AM 44.6 °F 38.4 °F 42.8 °F 93% 29.78 in 10.0 mi NE 12.7 mph 18.4 mph N/A   Overcast
6:35 AM 44.6 °F 38.8 °F 42.8 °F 93% 29.77 in 10.0 mi NE 11.5 mph 20.7 mph N/A   Mostly Cloudy
6:55 AM 44.6 °F 37.4 °F 42.8 °F 93% 29.77 in 10.0 mi NE 16.1 mph 21.9 mph N/A   Overcast
7:15 AM 44.6 °F 39.2 °F 42.8 °F 93% 29.77 in 10.0 mi NE 10.4 mph 18.4 mph N/A   Overcast
7:35 AM 44.6 °F 37.8 °F 42.8 °F 93% 29.75 in 10.0 mi NE 15.0 mph 20.7 mph N/A   Overcast
7:36 AM 44.6 °F 38.1 °F 42.8 °F 93% 29.75 in 10.0 mi NE 13.8 mph 20.7 mph N/A   Overcast
7:55 AM 44.6 °F 37.4 °F 42.8 °F 93% 29.74 in 10.0 mi NE 16.1 mph 23.0 mph N/A   Overcast
8:15 AM 44.6 °F 37.8 °F 42.8 °F 93% 29.73 in 10.0 mi NE 15.0 mph 24.2 mph N/A   Overcast
8:35 AM 44.6 °F 37.8 °F 42.8 °F 93% 29.71 in 10.0 mi NE 15.0 mph 27.6 mph N/A   Overcast
8:55 AM 44.6 °F 36.9 °F 42.8 °F 93% 29.70 in 10.0 mi NE 18.4 mph 26.5 mph N/A   Overcast
9:15 AM 44.6 °F 36.6 °F 42.8 °F 93% 29.68 in 10.0 mi NE 19.6 mph 27.6 mph N/A   Overcast
9:16 AM 44.6 °F 37.2 °F 42.8 °F 93% 29.69 in 10.0 mi NE 17.3 mph 27.6 mph N/A   Overcast
9:35 AM 44.6 °F 36.6 °F 42.8 °F 93% 29.68 in 10.0 mi NE 19.6 mph 28.8 mph N/A   Overcast
9:55 AM 44.6 °F 37.4 °F 42.8 °F 93% 29.68 in 10.0 mi NE 16.1 mph 28.8 mph N/A   Overcast
10:15 AM 44.6 °F 37.2 °F 42.8 °F 93% 29.66 in 10.0 mi NE 17.3 mph 29.9 mph N/A   Overcast
10:35 AM 44.6 °F 37.8 °F 42.8 °F 93% 29.64 in 10.0 mi NE 15.0 mph 28.8 mph N/A   Overcast
10:36 AM 44.6 °F 37.2 °F 42.8 °F 93% 29.64 in 10.0 mi NE 17.3 mph 32.2 mph N/A   Overcast
10:55 AM 44.6 °F 37.2 °F 42.8 °F 93% 29.62 in 10.0 mi NE 17.3 mph 29.9 mph N/A   Overcast
11:15 AM 44.6 °F 36.6 °F 42.8 °F 93% 29.61 in 10.0 mi ENE 19.6 mph 31.1 mph N/A   Overcast
11:16 AM 44.6 °F 36.4 °F 42.8 °F 93% 29.60 in 10.0 mi NE 20.7 mph 31.1 mph N/A   Overcast
11:35 AM 44.6 °F 35.3 °F 42.8 °F 93% 29.57 in 10.0 mi NE 26.5 mph 34.5 mph N/A   Overcast
11:55 AM 44.6 °F 35.5 °F 42.8 °F 93% 29.56 in 7.0 mi NE 25.3 mph 34.5 mph N/A Rain Rain
12:15 PM 44.6 °F 37.8 °F 42.8 °F 93% 29.54 in 7.0 mi NE 15.0 mph 28.8 mph N/A Rain Rain
12:16 PM 44.6 °F 37.8 °F 42.8 °F 93% 29.54 in 7.0 mi NE 15.0 mph 27.6 mph N/A Rain Rain
12:35 PM 44.6 °F 36.4 °F 42.8 °F 93% 29.52 in 7.0 mi NE 20.7 mph 39.1 mph N/A Rain Rain
12:36 PM 44.6 °F 37.2 °F 42.8 °F 93% 29.52 in 7.0 mi NE 17.3 mph 39.1 mph N/A Rain Light Rain
12:55 PM 44.6 °F 35.7 °F 42.8 °F 93% 29.49 in 7.0 mi NE 24.2 mph 40.3 mph N/A Rain Rain
1:15 PM 44.6 °F 35.9 °F 42.8 °F 93% 29.48 in 4.0 mi NE 23.0 mph 34.5 mph N/A Rain Heavy Rain
1:35 PM 44.6 °F 35.9 °F 42.8 °F 93% 29.44 in 10.0 mi NE 23.0 mph 39.1 mph N/A Rain Light Rain
1:36 PM 44.6 °F 36.1 °F 42.8 °F 93% 29.44 in 7.0 mi NE 21.9 mph 39.1 mph N/A Rain Rain
1:55 PM 44.6 °F 35.7 °F 42.8 °F 93% 29.40 in 7.0 mi NE 24.2 mph 38.0 mph N/A Rain Rain
2:15 PM 44.6 °F 36.1 °F 42.8 °F 93% 29.39 in 7.0 mi NE 21.9 mph 35.7 mph N/A Rain Heavy Rain
2:35 PM 44.6 °F 35.7 °F 42.8 °F 93% 29.37 in 3.0 mi NE 24.2 mph 39.1 mph N/A Rain Heavy Rain
2:55 PM 44.6 °F 36.6 °F 42.8 °F 93% 29.36 in 3.0 mi NE 19.6 mph 34.5 mph N/A Rain Heavy Rain
2:56 PM 44.6 °F 35.7 °F 42.8 °F 93% 29.35 in 3.0 mi NE 24.2 mph 42.6 mph N/A Rain Heavy Rain
3:15 PM 44.6 °F 35.9 °F 42.8 °F 93% 29.33 in 3.0 mi NE 23.0 mph 38.0 mph N/A Rain Heavy Rain